Location: Wapato
(46.4478°N, 120.4212°W)
Time: 23:02:55
(UTC+00:00)

S-56A Canister/Altair - Pass Details

Date: 20 May 2026
Orbit: 633 x 2484 km, 38.9° (Epoch: 7 June)

Event Time Altitude Azimuth Distance (km) Brightness Sun altitude
Rises 05:30:13 0° 258° (WSW) 3,026 10.9 -15.6°
Reaches altitude 10° 05:32:48 10° 248° (WSW) 2,035 9.9 -15.9°
Maximum altitude 05:36:46 32° 185° (S) 1,098 7.9 -16.3°
Enters shadow 05:37:39 29° 162° (SSE) 1,169 7.9 -16.4°
